Location: Beaurecueil
(43.5122°N, 5.5450°E)
Time: 11:45:21
(UTC+00:00)

Meteor 1-24 Rocket - Visible Passes

Search period start: 16 January 2021 00:00
Search period end: 26 January 2021 00:00
Orbit: 789 x 928 km, 81.3° (Epoch: 15 January)

Date Brightness Start Highest point End Pass type
(mag) Time Alt. Az. Time Alt. Az. Time Alt. Az.
16 Jan 6.1 03:26:56 12° NNE 03:29:44 18° ENE 03:33:20 10° ESE visible
16 Jan 3.5 05:09:11 17° NNW 05:13:18 65° W 05:18:47 10° S visible
16 Jan 4.3 18:19:55 10° SSW 18:25:12 53° WNW 18:30:25 10° N visible
17 Jan 6.1 03:18:28 15° NE 03:20:07 17° ENE 03:23:38 10° ESE visible
17 Jan 3.5 05:00:43 27° NNW 05:03:43 67° W 05:09:13 10° S visible
17 Jan 4.3 18:10:18 10° SSW 18:15:35 55° WNW 18:20:49 10° N visible
18 Jan 6.1 03:10:06 16° ENE 03:10:30 17° ENE 03:13:55 10° ESE visible
18 Jan 3.5 04:52:22 43° NNW 04:54:07 70° W 04:59:40 10° S visible
18 Jan 4.2 18:00:41 10° SSW 18:05:58 57° WNW 18:11:13 10° N visible
19 Jan 6.2 03:01:49 15° ENE 03:01:49 15° ENE 03:04:13 10° ESE visible
19 Jan 3.5 04:44:06 68° WNW 04:44:31 72° W 04:50:06 10° S visible
19 Jan 4.2 17:51:04 10° SSW 17:56:22 59° WNW 18:01:37 10° N visible
20 Jan 6.4 02:53:35 12° E 02:53:35 12° E 02:54:29 10° E visible
20 Jan 3.8 04:35:52 60° SSW 04:35:52 60° SSW 04:40:32 10° S visible
20 Jan 4.1 17:41:27 10° SSW 17:46:46 62° WNW 17:52:01 10° N visible
21 Jan 4.6 04:27:40 36° S 04:27:40 36° S 04:30:58 10° S visible
21 Jan 4.1 17:31:51 10° SSW 17:37:09 64° WNW 17:42:26 10° N visible
22 Jan 5.3 04:19:29 22° S 04:19:29 22° S 04:21:24 10° S visible
22 Jan 4.0 17:22:14 10° SSW 17:27:32 66° WNW 17:32:50 10° N visible
23 Jan 6.0 04:11:17 13° S 04:11:17 13° S 04:11:50 10° S visible
23 Jan 4.0 17:12:37 10° SSW 17:17:55 69° W 17:23:14 10° N visible
24 Jan 3.9 17:03:01 10° SSW 17:08:19 72° W 17:13:38 10° N visible
